WZ3X Weather Reports


time (UTC)temp
C
wind
direction
speed
KPH
gust
KPH
rain 1hr
cm
rain 24hr
cm
rain mn
cm
humidity
%
barometer
mb
20260506221624 26 178 9.7 22.5 0.00 0.00 0.00 79 1013.5
20260506220140 26 144 9.7 22.5 0.00 0.00 0.00 79 1013.8
20260506214628 26 142 9.7 19.3 0.00 0.00 0.00 78 1014.0
20260506213130 26 144 8.0 20.9 0.00 0.00 0.00 73 1014.0
20260506211624 27 165 6.4 17.7 0.00 0.00 0.00 73 1014.1
20260506210119 26 220 8.0 20.9 0.00 0.00 0.00 73 1014.3
20260506204635 27 163 9.7 17.7 0.00 0.00 0.00 75 1014.5
20260506203131 27 161 9.7 17.7 0.00 0.00 0.00 74 1014.5
20260506201632 26 184 12.9 22.5 0.00 0.00 0.00 75 1014.9
20260506200151 27 172 12.9 20.9 0.00 0.00 0.00 73 1015.1
20260506194625 28 159 3.2 16.1 0.00 0.00 0.00 71 1015.5
20260506193144 27 163 8.0 17.7 0.00 0.00 0.00 70 1015.6
20260506191637 28 231 4.8 22.5 0.00 0.00 0.00 70 1015.9
20260506190130 28 244 14.5 22.5 0.00 0.00 0.00 68 1016.0
20260506184624 27 215 11.3 16.1 0.00 0.00 0.00 70 1016.0
20260506183121 28 257 9.7 19.3 0.00 0.00 0.00 72 1016.1
20260506181618 27 245 11.3 16.1 0.00 0.00 0.00 71 1016.1
20260506180118 27 218 9.7 19.3 0.00 0.00 0.00 70 1016.4
20260506174655 28 269 11.3 17.7 0.00 0.00 0.00 70 1016.5
20260506173129 27 197 11.3 17.7 0.00 0.00 0.00 70 1016.5
20260506171624 28 178 3.2 16.1 0.00 0.00 0.00 70 1016.6
20260506170139 27 241 8.0 17.7 0.00 0.00 0.00 74 1016.7
20260506164637 26 199 8.0 14.5 0.00 0.00 0.00 78 1016.6
20260506163128 27 223 8.0 12.9 0.00 0.00 0.00 78 1016.5
20260506161627 26 201 6.4 11.3 0.00 0.00 0.00 82 1016.4
20260506160144 26 191 8.0 14.5 0.00 0.00 0.00 80 1016.2
20260506154633 26 219 8.0 14.5 0.00 0.00 0.00 81 1016.2
20260506153131 26 197 8.0 16.1 0.00 0.00 0.00 81 1016.0
20260506151627 25 259 8.0 12.9 0.00 0.00 0.00 82 1016.0
20260506150126 25 214 8.0 19.3 0.00 0.00 0.00 83 1015.8
20260506144621 25 220 8.0 19.3 0.00 0.00 0.00 82 1015.5
20260506143137 25 243 8.0 17.7 0.00 0.00 0.00 84 1015.5
20260506141653 25 163 8.0 17.7 0.00 0.00 0.00 85 1015.5
20260506140127 25 181 12.9 20.9 0.00 0.00 0.00 83 1015.3
20260506134643 25 175 6.4 14.5 0.00 0.00 0.00 85 1015.1
20260506133132 23 234 8.0 16.1 0.00 0.00 0.00 88 1015.0
20260506131630 23 200 9.7 16.1 0.00 0.00 0.00 90 1014.9
20260506130122 23 163 9.7 14.5 0.00 0.00 0.00 91 1014.6
20260506124615 23 176 6.4 17.7 0.00 0.00 0.00 92 1014.4
20260506123132 22 173 8.0 16.1 0.00 0.00 0.00 93 1014.4
20260506121626 22 169 6.4 11.3 0.00 0.00 0.00 94 1013.9
20260506120123 22 196 8.0 16.1 0.00 0.00 0.00 95 1013.5
20260506114637 22 211 4.8 9.7 0.00 0.00 0.00 96 1013.4
20260506113134 22 215 4.8 9.7 0.00 0.00 0.00 96 1013.3
20260506111631 22 184 4.8 12.9 0.00 0.00 0.00 96 1012.9
20260506110129 21 151 3.2 11.3 0.00 0.00 0.00 96 1012.9
20260506104621 21 186 4.8 11.3 0.00 0.00 0.00 96 1012.9
20260506103123 22 189 4.8 9.7 0.00 0.00 0.00 96 1012.8
20260506101635 22 192 4.8 9.7 0.00 0.00 0.00 96 1012.8
20260506100127 22 188 4.8 9.7 0.00 0.00 0.00 95 1012.7
20260506094620 22 193 3.2 9.7 0.00 0.00 0.00 95 1012.8
20260506093135 22 174 4.8 9.7 0.00 0.00 0.00 95 1012.8
20260506091631 22 218 3.2 11.3 0.00 0.00 0.00 95 1012.8
20260506090143 22 164 4.8 9.7 0.00 0.00 0.00 95 1012.9
20260506084625 22 185 3.2 8.0 0.00 0.00 0.00 95 1012.9
20260506083119 22 202 4.8 9.7 0.00 0.00 0.00 95 1013.1
20260506081656 22 188 4.8 11.3 0.00 0.00 0.00 95 1013.3
20260506080132 22 223 4.8 11.3 0.00 0.00 0.00 95 1013.2
20260506073122 22 194 4.8 8.0 0.00 0.00 0.00 95 1013.3
20260506071634 22 194 3.2 8.0 0.00 0.00 0.00 94 1013.3
20260506070130 22 185 4.8 11.3 0.00 0.00 0.00 95 1013.4
20260506061629 22 183 4.8 9.7 0.00 0.00 0.00 95 1013.5
20260506060126 22 209 6.4 9.7 0.00 0.00 0.00 95 1013.8
20260506050130 22 192 4.8 9.7 0.00 0.00 0.00 95 1014.0
20260506044641 22 187 4.8 11.3 0.00 0.00 0.00 95 1014.2
20260506043135 22 167 3.2 9.7 0.00 0.00 0.00 95 1014.5
20260506041652 22 179 4.8 8.0 0.00 0.00 0.00 95 1014.7
20260506040125 22 178 4.8 9.7 0.00 0.00 0.00 94 1014.6
20260506034623 22 191 1.6 11.3 0.00 0.00 0.00 94 1014.8
20260506033155 22 188 4.8 12.9 0.00 0.00 0.00 94 1014.7
20260506031633 22 169 6.4 11.3 0.00 0.00 0.00 93 1014.6
20260506030127 22 184 6.4 9.7 0.00 0.00 0.00 93 1014.6
20260506024627 22 186 6.4 9.7 0.00 0.00 0.00 92 1014.6
20260506023120 22 204 4.8 11.3 0.00 0.00 0.00 92 1014.5
20260506021621 22 186 8.0 14.5 0.00 0.00 0.00 91 1014.3
20260506020133 22 181 4.8 9.7 0.00 0.00 0.00 91 1014.5
20260506014626 22 180 4.8 9.7 0.00 0.00 0.00 90 1014.5
20260506013119 22 181 6.4 11.3 0.00 0.00 0.00 90 1014.2
20260506011636 22 194 3.2 11.3 0.00 0.00 0.00 89 1014.1
20260506010132 22 182 4.8 9.7 0.00 0.00 0.00 89 1014.0
20260506004626 22 178 6.4 17.7 0.00 0.00 0.00 89 1013.9
20260506003122 22 190 8.0 16.1 0.00 0.00 0.00 88 1013.9
20260506001623 22 171 8.0 17.7 0.00 0.00 0.00 87 1013.7
20260506000120 23 221 8.0 14.5 0.00 0.00 0.00 86 1013.5
20260505234637 23 163 8.0 14.5 0.00 0.00 0.00 83 1013.9
20260505233155 23 166 9.7 16.1 0.00 0.00 0.00 79 1013.9
20260505231633 24 196 6.4 16.1 0.00 0.00 0.00 74 1013.9
20260505230128 24 155 4.8 19.3 0.00 0.00 0.00 77 1013.7
20260505224624 24 150 8.0 20.9 0.00 0.00 0.00 73 1013.9
20260505223137 24 160 9.7 17.7 0.00 0.00 0.00 78 1013.9